Kalamazoo, MI

12:51 AM EDT on September 23, 2017 (GMT -0400)
Kalamazoo-Battle Creek International

Weather History for KAZO - December, 2008

Change the Weather History Date:

Wednesday, December 31, 2008

  Actual Average Record
Temperature  
Mean Temperature 21 °F 25 °F  
Max Temperature 25 °F 32 °F 60 °F (1965)
Min Temperature 17 °F 19 °F -10 °F (1976)
Degree Days  
Heating Degree Days 44 40  
Month to date heating degree days 1123  
Since 1 July heating degree days 2451  
Cooling Degree Days 0 0  
Month to date cooling degree days 0  
Year to date cooling degree days 675  
Moisture  
Dew Point 15 °F    
Average Humidity 74    
Maximum Humidity 86    
Minimum Humidity 58    
Precipitation  
Precipitation 0.00 in 0.06 in 0.39 in (2006)
Month to date precipitation 1.98  
Year to date precipitation 35.74  
Snow  
Snow 0.00 in - - ()
Snow Depth 2.00 in    
Sea Level Pressure  
Sea Level Pressure 30.13 in    
Wind  
Wind Speed 16 mph (NNW)    
Max Wind Speed 22 mph    
Max Gust Speed 30 mph    
Visibility 6 miles    
Events Snow    
T = Trace of Precipitation, MM = Missing Value Source: NWS Daily Summary

Daily Weather History Graph

Daily Weather History Graph

Search for Another Location

Airport or City:

Trip Planner

Search our weather history database for the weather conditions in past years. The results will help you decide how hot, cold, wet, or windy it might be!

Date:

Astronomy

Dec. 31, 2008 Rise Set
Actual Time 8:10 AM EST 5:20 PM EST
Civil Twilight 7:39 AM EST 5:51 PM EST
Nautical Twilight 7:03 AM EST 6:27 PM EST
Astronomical Twilight 6:29 AM EST 7:01 PM EST
Moon 10:32 AM EST (12/31) 9:33 PM EST (12/31)
Length of Visible Light 10h 12m
Length of Day
9h 09m
Waxing Crescent, 15% of the Moon is Illuminated
Dec 31
Waxing Crescent
Jan 4
First Quarter
Jan 10
Full
Jan 17
Last Quarter
Jan 26
New

Hourly Weather History & Observations

Time (EST) Temp. Windchill Dew Point Humidity Pressure Visibility Wind Dir Wind Speed Gust Speed Precip Events Conditions
12:00 AM 24.8 °F 12.9 °F 21.2 °F 86% 29.74 in 1.0 mi North 13.8 mph - 0.00 in Snow Light Snow
12:26 AM 24.8 °F 11.5 °F 21.2 °F 86% 29.77 in 1.5 mi North 17.3 mph - 0.00 in Snow Light Snow
12:43 AM 24.8 °F 11.9 °F 21.2 °F 86% 29.80 in 0.8 mi NNW 16.1 mph - 0.00 in Snow Light Snow
12:53 AM 25.0 °F 10.9 °F 21.0 °F 85% 29.85 in 0.8 mi NNW 19.6 mph - 0.00 in Snow Light Snow
1:02 AM 24.8 °F 10.7 °F 21.2 °F 86% 29.82 in 0.8 mi NNW 19.6 mph 26.5 mph 0.00 in Snow Light Snow
1:07 AM 24.8 °F 11.5 °F 21.2 °F 86% 29.82 in 1.0 mi North 17.3 mph 26.5 mph 0.00 in Snow Light Snow
1:30 AM 24.8 °F 11.1 °F 19.4 °F 80% 29.85 in 0.8 mi North 18.4 mph - 0.00 in Snow Light Snow
1:35 AM 24.8 °F 10.3 °F 19.4 °F 80% 29.85 in 1.0 mi North 20.7 mph - 0.00 in Snow Light Snow
1:53 AM 24.1 °F 10.1 °F 19.0 °F 81% 29.91 in 1.2 mi NNW 18.4 mph - 0.00 in Snow Light Snow
2:04 AM 23.0 °F 8.0 °F 17.6 °F 80% 29.89 in 1.2 mi North 20.7 mph 29.9 mph N/A Snow Light Snow
2:22 AM 23.0 °F 8.7 °F 17.6 °F 80% 29.92 in 2.0 mi NNW 18.4 mph 28.8 mph 0.00 in Snow Light Snow
2:29 AM 23.0 °F 8.3 °F 17.6 °F 80% 29.93 in 1.8 mi NNW 19.6 mph 27.6 mph 0.00 in Snow Light Snow
2:36 AM 23.0 °F 9.2 °F 17.6 °F 80% 29.94 in 2.0 mi NNW 17.3 mph 26.5 mph 0.00 in Snow Light Snow
2:46 AM 23.0 °F 9.2 °F 17.6 °F 80% 29.95 in 2.0 mi NNW 17.3 mph 24.2 mph 0.00 in Snow Light Snow
2:53 AM 23.0 °F 8.7 °F 18.0 °F 81% 29.99 in 2.0 mi NNW 18.4 mph - 0.00 in Snow Light Snow
3:11 AM 23.0 °F 9.6 °F 17.6 °F 80% 29.97 in 5.0 mi NNW 16.1 mph - 0.00 in Snow Light Snow
3:19 AM 23.0 °F 8.7 °F 15.8 °F 74% 29.98 in 8.0 mi North 18.4 mph 26.5 mph 0.00 in Snow Light Snow
3:53 AM 23.0 °F 9.6 °F 16.0 °F 74% 30.04 in 10.0 mi NNW 16.1 mph 25.3 mph 0.00 in   Overcast
4:33 AM 21.2 °F 7.8 °F 15.8 °F 80% 30.03 in 7.0 mi NNW 15.0 mph 21.9 mph 0.00 in Snow Light Snow
4:53 AM 21.9 °F 8.2 °F 14.0 °F 72% 30.09 in 10.0 mi North 16.1 mph 23.0 mph 0.00 in   Overcast
5:37 AM 21.2 °F 7.8 °F 15.8 °F 80% 30.09 in 2.0 mi NNW 15.0 mph - 0.00 in Snow Light Snow
5:53 AM 21.0 °F 6.6 °F 15.1 °F 78% 30.14 in 7.0 mi NNW 17.3 mph 25.3 mph 0.00 in Snow Light Snow
7:53 AM 19.9 °F 3.9 °F 10.0 °F 65% 30.24 in 10.0 mi NNW 20.7 mph 26.5 mph N/A   Scattered Clouds
8:53 AM 19.0 °F 5.0 °F 8.1 °F 62% 30.27 in 10.0 mi NNW 15.0 mph - N/A   Partly Cloudy
9:53 AM 19.9 °F 5.7 °F 9.0 °F 62% 30.30 in 10.0 mi NW 16.1 mph - N/A   Partly Cloudy
10:53 AM 21.0 °F 7.6 °F 9.0 °F 60% 30.33 in 10.0 mi North 15.0 mph - N/A   Scattered Clouds
11:53 AM 21.9 °F 11.0 °F 9.0 °F 58% 30.34 in 10.0 mi NNW 10.4 mph - N/A   Mostly Cloudy
12:53 PM 21.9 °F 7.3 °F 10.9 °F 63% 30.34 in 10.0 mi NNW 18.4 mph 26.5 mph 0.00 in Snow Light Snow
1:31 PM 23.0 °F 9.6 °F 12.2 °F 63% 30.29 in 10.0 mi WNW 16.1 mph 27.6 mph 0.00 in   Mostly Cloudy
1:53 PM 23.0 °F 9.2 °F 12.9 °F 65% 30.34 in 7.0 mi NW 17.3 mph 23.0 mph 0.00 in Snow Light Snow
2:19 PM 21.2 °F 5.2 °F 14.0 °F 74% 30.30 in 2.0 mi WNW 21.9 mph 27.6 mph 0.00 in Snow Light Snow
2:29 PM 23.0 °F 8.3 °F 10.4 °F 59% 30.30 in 6.0 mi NW 19.6 mph 26.5 mph 0.00 in Snow Light Snow
2:53 PM 21.9 °F 7.3 °F 10.0 °F 60% 30.35 in 9.0 mi NW 18.4 mph 28.8 mph 0.00 in Snow Light Snow
3:38 PM 19.4 °F 6.6 °F 10.4 °F 68% 30.32 in 9.0 mi WNW 12.7 mph - 0.00 in   Overcast
3:45 PM 21.2 °F 7.3 °F 10.4 °F 63% 30.32 in 10.0 mi WNW 16.1 mph - 0.00 in   Mostly Cloudy
3:53 PM 21.0 °F 8.1 °F 10.0 °F 63% 30.37 in 10.0 mi NW 13.8 mph - 0.00 in   Mostly Cloudy
4:53 PM 21.0 °F 10.6 °F 12.9 °F 71% 30.38 in 2.5 mi WNW 9.2 mph - 0.00 in Snow Light Snow
5:04 PM 19.4 °F 6.0 °F 12.2 °F 74% 30.33 in 4.0 mi WNW 13.8 mph - 0.00 in Snow Light Snow
6:53 PM 19.9 °F 11.1 °F 10.9 °F 68% 30.40 in 6.0 mi NW 6.9 mph - 0.00 in Snow Light Snow
7:53 PM 17.1 °F 11.7 °F 10.9 °F 77% 30.40 in 8.0 mi NW 3.5 mph - 0.00 in Snow Light Snow
8:53 PM 19.0 °F 13.9 °F 12.9 °F 77% 30.40 in 4.0 mi North 3.5 mph - 0.00 in Snow Light Snow
9:53 PM 17.1 °F 11.7 °F 10.9 °F 77% 30.40 in 8.0 mi West 3.5 mph - 0.00 in Snow Light Snow
10:53 PM 18.0 °F 12.7 °F 12.9 °F 81% 30.39 in 7.0 mi SW 3.5 mph - 0.00 in Snow Light Snow
11:53 PM 17.1 °F - 12.0 °F 81% 30.38 in 9.0 mi Calm Calm - 0.00 in   Mostly Cloudy